Philadelphia Wings Airport, PA

12:12 PM EDT on October 17, 2019 (GMT -0400)
Philadelphia Wings Airport

Weather History for KLOM - August, 2019

Change the Weather History Date:

Saturday, August 10, 2019

  Actual Average (WUND) Record (WUND)
Temperature  
Mean Temperature 70 °F -  
Max Temperature 81 °F - - (-1)
Min Temperature 60 °F - - (-1)
Cooling Degree Days 6    
Growing Degree Days 20 (Base 50)    
Moisture  
Dew Point 57 °F    
Average Humidity 65    
Maximum Humidity 96    
Minimum Humidity 40    
Precipitation  
Precipitation 0.00 in - - ()
Sea Level Pressure  
Sea Level Pressure 29.88 in    
Wind  
Wind Speed 4 mph (WNW)    
Max Wind Speed 13 mph    
Max Gust Speed 23 mph    
Visibility 10 miles    
Events      
Averages and records for this station are not official NWS values.
T = Trace of Precipitation, MM = Missing Value Source: NWS Daily Summary

Daily Weather History Graph

Daily Weather History Graph

Search for Another Location

Airport or City:

Astronomy

Aug. 10, 2019 Rise Set
Actual Time 6:07 AM EDT 8:04 PM EDT
Civil Twilight 5:37 AM EDT 8:34 PM EDT
Nautical Twilight 5:01 AM EDT 9:10 PM EDT
Astronomical Twilight 4:22 AM EDT 9:48 PM EDT
Moon 4:45 PM EDT (8/10) 1:42 AM EDT (8/10)
Length of Visible Light 14h 56m
Length of Day
13h 57m
Waxing Gibbous, 79% of the Moon is Illuminated
Aug 10
Waxing Gibbous
Aug 15
Full
Aug 23
Last Quarter
Aug 30
New
Sep 5
First Quarter

Hourly Weather History & Observations

Time (EDT) Temp. Heat Index Dew Point Humidity Pressure Visibility Wind Dir Wind Speed Gust Speed Precip Events Conditions
12:15 AM 64.2 °F - 60.4 °F 87% 29.84 in 10.0 mi NNW 3.5 mph - N/A   Clear
12:35 AM 67.1 °F - 58.8 °F 75% 29.85 in 10.0 mi NW 3.5 mph - N/A   Clear
12:55 AM 67.3 °F - 58.3 °F 73% 29.85 in 10.0 mi NNW 3.5 mph - N/A   Clear
1:15 AM 67.1 °F - 57.9 °F 72% 29.85 in 10.0 mi NW 3.5 mph - N/A   Clear
1:35 AM 66.2 °F - 58.3 °F 76% 29.85 in 10.0 mi Calm Calm - N/A   Clear
1:55 AM 65.7 °F - 57.9 °F 76% 29.86 in 10.0 mi Calm Calm - N/A   Clear
2:15 AM 62.2 °F - 59.5 °F 91% 29.86 in 7.0 mi Calm Calm - N/A   Clear
2:35 AM 61.5 °F - 59.5 °F 93% 29.86 in 10.0 mi NNW 3.5 mph - N/A   Clear
2:55 AM 63.9 °F - 57.6 °F 80% 29.85 in 10.0 mi NNW 4.6 mph - N/A   Clear
3:15 AM 65.3 °F - 56.1 °F 72% 29.85 in 10.0 mi NW 4.6 mph - N/A   Clear
3:35 AM 65.5 °F - 55.8 °F 71% 29.86 in 10.0 mi West 4.6 mph - N/A   Clear
3:55 AM 63.0 °F - 56.5 °F 79% 29.86 in 10.0 mi SW 4.6 mph - N/A   Clear
4:15 AM 60.8 °F - 57.2 °F 88% 29.86 in 10.0 mi WSW 3.5 mph - N/A   Clear
4:35 AM 61.5 °F - 57.0 °F 85% 29.86 in 10.0 mi WSW 3.5 mph - N/A   Clear
4:55 AM 62.4 °F - 56.8 °F 82% 29.86 in 10.0 mi West 4.6 mph - N/A   Clear
5:15 AM 61.7 °F - 56.5 °F 83% 29.86 in 10.0 mi NW 3.5 mph - N/A   Clear
5:35 AM 62.8 °F - 55.9 °F 78% 29.86 in 10.0 mi NW 3.5 mph - N/A   Clear
5:55 AM 62.4 °F - 55.6 °F 78% 29.86 in 10.0 mi West 3.5 mph - N/A   Clear
6:15 AM 61.5 °F - 55.9 °F 82% 29.87 in 10.0 mi West 3.5 mph - N/A   Clear
6:35 AM 62.1 °F - 56.1 °F 81% 29.87 in 10.0 mi West 3.5 mph - N/A   Clear
6:55 AM 64.2 °F - 55.8 °F 74% 29.88 in 10.0 mi WSW 3.5 mph - N/A   Clear
7:15 AM 65.3 °F - 55.9 °F 72% 29.88 in 10.0 mi West 3.5 mph - N/A   Clear
7:35 AM 66.6 °F - 56.7 °F 70% 29.88 in 10.0 mi Calm Calm - N/A   Clear
7:55 AM 67.6 °F - 56.7 °F 68% 29.88 in 10.0 mi WNW 4.6 mph - N/A   Clear
8:15 AM 69.3 °F - 56.7 °F 64% 29.88 in 10.0 mi NW 4.6 mph - N/A   Clear
8:35 AM 71.1 °F - 57.4 °F 62% 29.89 in 10.0 mi WNW 3.5 mph - N/A   Clear
8:55 AM 72.0 °F - 56.7 °F 58% 29.89 in 10.0 mi NW 8.1 mph - N/A   Clear
9:15 AM 73.0 °F - 57.2 °F 57% 29.89 in 10.0 mi WNW 4.6 mph - N/A   Clear
9:35 AM 73.4 °F - 57.2 °F 57% 29.90 in 10.0 mi WNW 8.1 mph - N/A   Clear
9:55 AM 74.3 °F - 58.3 °F 57% 29.90 in 10.0 mi NW 8.1 mph - N/A   Clear
10:15 AM 74.5 °F - 58.3 °F 57% 29.90 in 10.0 mi NW 6.9 mph - N/A   Clear
10:35 AM 76.1 °F - 59.7 °F 57% 29.90 in 10.0 mi NNW 5.8 mph - N/A   Clear
10:55 AM 75.9 °F - 58.3 °F 54% 29.90 in 10.0 mi WNW 6.9 mph - N/A   Clear
11:15 AM 76.8 °F - 59.0 °F 54% 29.89 in 10.0 mi WNW 8.1 mph - N/A   Clear
11:35 AM 77.9 °F - 60.3 °F 54% 29.89 in 10.0 mi West 5.8 mph - N/A   Clear
11:55 AM 77.9 °F - 58.1 °F 50% 29.89 in 10.0 mi WNW 12.7 mph 17.3 mph N/A   Clear
12:15 PM 78.1 °F - 55.6 °F 46% 29.89 in 10.0 mi WNW 9.2 mph 17.3 mph N/A   Clear
12:35 PM 79.2 °F - 58.1 °F 48% 29.88 in 10.0 mi West 10.4 mph 18.4 mph N/A   Clear
12:55 PM 79.0 °F - 57.2 °F 47% 29.88 in 10.0 mi West 6.9 mph 23.0 mph N/A   Scattered Clouds
1:15 PM 79.2 °F - 56.1 °F 45% 29.88 in 10.0 mi West 11.5 mph 18.4 mph N/A   Scattered Clouds
1:35 PM 80.1 °F 80.3 °F 56.5 °F 44% 29.87 in 10.0 mi West 10.4 mph 17.3 mph N/A   Scattered Clouds
1:55 PM 80.1 °F 80.2 °F 55.9 °F 43% 29.86 in 10.0 mi WNW 6.9 mph 19.6 mph N/A   Clear
2:15 PM 80.4 °F 80.4 °F 55.6 °F 42% 29.86 in 10.0 mi West 10.4 mph 23.0 mph N/A   Scattered Clouds
2:35 PM 80.4 °F 80.5 °F 55.8 °F 43% 29.86 in 10.0 mi WSW 11.5 mph 17.3 mph N/A   Mostly Cloudy
2:55 PM 81.1 °F 80.9 °F 55.0 °F 41% 29.86 in 10.0 mi West 10.4 mph 20.7 mph N/A   Mostly Cloudy
3:15 PM 81.0 °F 80.8 °F 55.8 °F 42% 29.85 in 10.0 mi NW 8.1 mph - N/A   Mostly Cloudy
3:35 PM 80.8 °F 80.7 °F 55.8 °F 42% 29.85 in 10.0 mi WNW 6.9 mph - N/A   Mostly Cloudy
3:55 PM 80.1 °F 80.1 °F 54.3 °F 41% 29.85 in 10.0 mi WNW 8.1 mph 19.6 mph N/A   Scattered Clouds
4:15 PM 79.3 °F - 54.5 °F 42% 29.85 in 10.0 mi WNW 6.9 mph - N/A   Clear
4:35 PM 79.0 °F - 53.8 °F 42% 29.85 in 10.0 mi WNW 5.8 mph - N/A   Clear
4:55 PM 80.8 °F 80.6 °F 55.0 °F 41% 29.85 in 10.0 mi NW 6.9 mph - N/A   Scattered Clouds
5:15 PM 80.4 °F 80.2 °F 54.3 °F 40% 29.85 in 10.0 mi WNW 10.4 mph - N/A   Scattered Clouds
5:35 PM 79.5 °F - 55.0 °F 43% 29.85 in 10.0 mi NNW 6.9 mph - N/A   Scattered Clouds
5:55 PM 79.3 °F - 54.9 °F 43% 29.86 in 10.0 mi NW 6.9 mph 19.6 mph N/A   Clear
6:15 PM 79.0 °F - 54.5 °F 43% 29.86 in 10.0 mi NW 9.2 mph - N/A   Clear
6:35 PM 78.6 °F - 52.2 °F 40% 29.87 in 5.0 mi NW 5.8 mph - N/A   Haze
6:55 PM 77.9 °F - 51.8 °F 40% 29.87 in 7.0 mi NW 6.9 mph - N/A   Scattered Clouds
7:15 PM 77.2 °F - 52.2 °F 42% 29.88 in 10.0 mi NNW 8.1 mph - N/A   Scattered Clouds
7:35 PM 75.7 °F - 52.9 °F 45% 29.88 in 10.0 mi NW 3.5 mph - N/A   Clear
7:55 PM 69.3 °F - 59.5 °F 71% 29.89 in 10.0 mi Calm Calm - N/A   Clear
8:15 PM 66.4 °F - 60.8 °F 82% 29.89 in 10.0 mi Calm Calm - N/A   Clear
8:35 PM 64.9 °F - 60.3 °F 85% 29.90 in 10.0 mi Calm Calm - N/A   Clear
8:55 PM 64.4 °F - 59.4 °F 84% 29.90 in 7.0 mi Calm Calm - N/A   Clear
9:15 PM 63.7 °F - 60.4 °F 89% 29.91 in 10.0 mi Calm Calm - N/A   Clear
9:35 PM 63.7 °F - 59.7 °F 87% 29.92 in 7.0 mi Calm Calm - N/A   Clear
9:55 PM 63.0 °F - 59.5 °F 89% 29.93 in 10.0 mi Calm Calm - N/A   Clear
10:15 PM 63.9 °F - 60.1 °F 87% 29.95 in 10.0 mi Calm Calm - N/A   Scattered Clouds
10:35 PM 62.6 °F - 59.9 °F 91% 29.95 in 10.0 mi Calm Calm - N/A   Scattered Clouds
10:55 PM 60.8 °F - 59.4 °F 95% 29.96 in 10.0 mi Calm Calm - N/A   Clear
11:15 PM 61.2 °F - 59.2 °F 93% 29.96 in 10.0 mi Calm Calm - N/A   Clear
11:35 PM 60.6 °F - 59.5 °F 96% 29.96 in 10.0 mi Calm Calm - N/A   Clear
11:55 PM 60.4 °F - 58.8 °F 94% 29.97 in 10.0 mi Calm Calm - N/A   Clear